Lapse_Rate
8.5 8.8 8.6 7.3 6.3 6.3 6.0 5.8 5.9 6.1 6.1 7.1 7.6 8.7 8.8 7.0 7.0 6.5 5.3 5.4 6.1 6.3 6.7 8.3 9.4 9.7 9.6 9.6 9.6 9.5 9.3 9.2 9.4 8.8 8.4 9.0 8.6 8.1 9.4 9.5 9.5 9.6 9.6
8.2 8.5 8.7 6.9 5.5 6.3 5.9 6.2 6.1 6.6 6.5 6.6 6.8 6.3 6.6 6.5 6.2 5.1 4.9 5.4 5.7 5.9 6.5 7.8 9.1 9.6 9.5 9.5 9.5 9.1 8.9 9.2 9.4 8.6 8.2 7.8 8.1 8.6 9.2 9.4 9.4 9.5 9.5
7.9 8.3 8.5 8.6 7.7 5.5 6.2 6.2 6.3 6.5 6.7 6.3 6.0 5.6 5.7 5.5 7.0 8.2 6.8 6.2 5.7 6.0 6.1 6.9 7.6 8.9 8.2 8.4 8.4 8.1 7.6 8.6 9.1 9.3 8.6 7.7 7.4 6.1 8.9 9.1 9.3 9.3 9.3
8.2 8.3 8.4 8.5 7.5 6.2 6.0 6.3 6.5 6.5 6.6 6.2 5.7 6.0 6.3 6.4 7.1 6.6 6.6 6.1 6.4 6.4 6.4 6.1 7.0 7.9 8.2 7.6 7.5 8.4 7.8 8.0 8.6 9.0 9.4 8.3 8.0 7.8 7.6 7.7 8.8 8.7 9.0
8.1 8.2 8.3 7.5 7.2 6.0 5.8 6.3 6.6 6.4 6.2 5.8 5.6 5.8 6.2 6.8 7.4 6.9 7.1 7.9 8.1 8.0 7.1 6.0 5.8 5.9 7.0 7.5 7.1 7.5 8.0 8.2 8.4 8.9 8.8 8.5 8.0 7.9 7.3 7.6 8.2 7.5 7.9
8.1 8.4 7.5 7.3 7.3 6.7 6.3 6.2 6.3 6.3 6.4 5.8 5.6 5.4 5.5 6.1 6.7 7.1 7.8 8.1 8.6 8.3 8.4 6.3 5.4 5.3 5.6 6.6 7.3 7.0 7.7 7.6 7.6 7.7 8.0 7.5 6.8 7.6 7.5 7.3 7.5 7.9 8.4
8.1 8.2 8.3 8.5 8.5 8.1 7.3 7.0 6.8 6.7 7.2 6.6 6.3 6.1 5.7 5.8 6.0 6.5 7.2 7.5 8.3 9.1 9.4 8.6 6.5 6.3 6.0 6.3 6.3 7.2 7.6 7.9 7.2 6.7 7.1 7.4 7.0 7.0 6.9 7.2 7.9 8.1 8.4
8.1 8.2 8.3 8.3 8.4 7.1 7.1 7.1 7.2 7.1 7.0 7.0 6.6 6.2 5.8 5.5 5.9 6.5 6.7 6.8 7.4 8.4 8.9 7.9 7.5 7.2 6.5 6.5 6.9 6.5 6.7 7.4 7.5 7.4 6.3 7.0 6.8 7.6 7.0 7.0 7.5 7.6 8.2
8.0 8.2 8.4 8.5 8.3 7.3 6.6 6.3 6.2 6.4 6.6 6.5 6.2 6.0 6.2 6.1 5.8 6.0 6.4 6.4 6.7 6.9 6.8 6.7 6.6 6.8 6.7 5.8 5.5 5.3 5.6 6.7 8.1 6.9 6.2 6.6 7.2 7.3 7.1 7.3 7.4 7.4 7.3
8.0 8.2 8.4 7.9 7.6 7.2 6.8 6.8 6.6 6.3 6.2 6.1 6.4 6.3 6.2 6.1 6.1 5.9 5.9 6.3 6.4 6.5 6.4 6.3 6.8 6.3 5.9 5.8 5.3 5.1 5.5 5.9 6.7 7.5 6.4 5.7 7.0 7.7 7.4 6.9 6.7 7.4 7.3
7.9 8.1 8.4 8.4 7.7 7.3 7.0 6.7 6.4 5.9 6.0 5.8 6.0 6.1 6.2 6.2 6.2 6.0 6.1 6.1 6.2 6.4 6.5 6.6 6.5 6.5 6.3 5.9 5.5 5.2 5.5 5.2 5.5 6.3 6.5 6.6 5.7 5.8 7.1 6.9 7.2 7.4 7.5
8.0 8.2 7.9 7.4 7.2 6.7 6.5 6.2 5.9 5.5 5.4 5.6 5.7 5.9 6.4 6.7 6.5 6.5 6.4 6.2 5.9 6.4 6.8 6.9 6.7 6.2 6.1 6.2 5.6 5.4 5.7 5.6 5.6 5.9 6.3 7.2 6.7 6.3 7.7 7.5 7.5 7.6 7.4
8.0 8.2 8.3 8.1 7.4 6.5 6.1 5.8 5.7 5.2 5.1 5.3 5.2 5.6 6.2 6.7 6.7 6.8 6.6 6.4 6.4 6.5 7.1 7.4 6.6 6.3 6.2 6.2 6.1 5.8 5.6 5.4 5.5 5.9 6.5 6.8 7.8 7.5 7.6 7.9 8.5 8.1 8.4
7.9 8.1 8.1 7.7 6.9 6.3 6.0 5.6 5.1 5.0 4.9 4.8 4.8 5.2 5.8 6.1 6.3 6.2 6.0 6.0 6.4 6.2 6.6 7.1 7.0 6.3 6.2 5.9 5.7 5.9 5.7 5.8 6.3 6.3 6.2 6.1 6.3 6.8 7.6 8.5 8.7 8.8 8.5
7.8 8.0 7.4 6.8 6.6 6.2 5.9 5.6 5.2 5.0 4.8 4.6 5.0 5.4 5.4 5.5 5.6 5.4 5.5 5.7 6.0 6.0 5.9 6.2 6.4 6.8 6.4 5.9 5.3 5.2 5.3 5.8 6.0 6.3 6.6 5.8 5.1 3.9 4.1 5.6 6.0 7.0 7.7
7.8 7.7 7.5 7.4 6.7 6.2 5.7 5.3 5.2 5.2 5.0 5.1 5.2 5.6 5.4 5.4 5.4 5.7 5.7 5.9 6.0 6.0 5.9 5.6 5.9 5.8 6.2 5.6 3.9 4.2 5.0 5.5 5.4 5.0 5.5 6.0 4.2 3.3 3.0 3.4 3.4 4.3 5.4
7.8 7.7 7.2 7.0 6.7 6.2 5.9 5.9 5.7 5.9 5.7 5.3 5.7 5.6 5.4 5.2 5.5 5.8 5.9 5.9 5.8 5.9 5.8 5.8 6.0 6.0 6.1 5.1 4.2 3.6 4.4 4.8 5.4 5.7 5.6 5.5 5.9 4.6 4.8 4.5 3.7 3.7 4.0
8.0 8.2 8.4 8.3 7.3 7.0 6.9 6.5 6.5 6.6 5.9 6.1 5.8 5.6 5.2 5.1 5.5 5.9 6.2 6.2 6.3 6.0 5.9 5.7 5.8 5.9 5.6 4.4 4.3 3.8 4.3 4.4 4.8 5.1 5.3 5.5 5.5 5.6 5.4 5.1 5.2 5.4 5.4
7.1 7.3 7.6 7.3 7.3 7.6 6.6 6.0 6.7 6.6 6.7 5.7 5.3 5.2 5.3 5.1 5.3 5.4 5.5 5.9 5.9 5.8 5.9 6.1 5.8 5.6 5.5 4.5 3.6 3.5 4.1 4.5 4.9 5.4 5.5 5.7 5.4 5.2 5.2 5.1 4.9 4.9 5.2
6.8 6.6 6.8 6.6 7.0 6.6 6.0 5.6 6.2 6.2 5.6 4.6 4.3 4.5 4.8 5.1 5.2 5.1 5.0 5.0 5.3 5.4 5.3 5.1 5.4 5.4 5.0 4.6 3.9 3.7 4.3 4.5 5.2 5.5 5.5 5.1 5.4 5.3 5.2 5.0 4.9 5.1 5.1
6.6 6.2 6.5 6.4 6.4 6.0 5.5 5.3 5.4 5.6 4.8 4.5 4.4 4.6 4.8 4.7 4.9 4.7 5.2 5.3 5.3 5.2 5.3 5.5 6.2 6.5 6.4 5.9 5.1 4.5 4.3 4.8 5.8 6.1 6.0 6.3 6.2 5.4 5.1 5.1 5.2 5.0 5.6
6.7 6.4 6.0 6.3 6.3 6.0 5.3 5.1 5.2 5.2 4.7 4.4 4.4 4.8 5.0 5.1 5.1 5.1 5.4 5.6 5.7 5.7 6.0 6.5 5.9 6.4 7.0 6.5 5.9 5.1 4.6 4.8 5.2 5.7 6.5 6.7 6.3 5.8 5.2 5.2 5.2 5.5 5.9
7.1 6.9 6.6 6.5 7.1 7.0 6.4 6.0 6.4 5.6 5.1 5.0 5.4 5.5 5.2 5.5 5.8 5.8 5.5 5.4 5.5 5.7 6.0 5.9 5.4 5.8 6.5 6.3 6.1 5.1 4.9 4.8 4.7 5.4 6.0 5.3 5.0 5.2 4.8 4.6 4.6 5.0 4.6
7.2 7.0 6.9 7.4 7.7 7.6 6.8 6.9 6.8 6.5 5.9 5.8 5.8 5.9 5.9 5.7 6.0 5.9 6.2 6.5 6.9 6.4 5.8 5.7 5.4 5.4 5.4 6.0 6.1 6.0 6.0 6.2 5.5 5.6 5.2 5.2 4.8 4.6 4.6 4.6 4.6 4.2 4.3
7.1 6.9 6.7 6.8 7.0 7.2 7.1 7.4 7.0 6.5 5.9 6.1 6.6 6.9 6.7 6.6 6.9 7.0 6.9 6.5 6.4 6.6 6.0 5.7 5.8 5.4 5.0 5.8 5.5 4.9 4.7 5.0 5.5 5.0 4.1 4.0 3.8 3.7 3.7 3.7 3.5 3.9 4.2
7.4 7.0 6.9 6.9 6.8 6.7 6.7 7.1 7.2 6.8 6.2 6.0 6.4 6.6 6.6 7.2 7.8 7.6 7.3 7.2 5.7 5.3 4.9 4.6 4.8 5.3 6.0 5.8 5.6 5.5 5.5 5.4 5.4 4.7 4.0 3.9 3.8 3.4 3.5 3.7 4.1 4.2 4.8
Wind_Speed
6 4 6 6 5 6 6 7 6 5 3 3 3 4 3 4 4 6 7 8 8 7 8 7 7 6 5 6 6 6 8 6 6 6 6 3 1 3 2 3 4 5 8
6 7 6 5 5 7 7 7 6 4 3 3 3 2 4 4 5 6 7 6 7 6 7 6 5 5 5 6 7 8 7 6 6 6 6 3 3 2 2 3 4 6 5
4 4 5 6 5 5 6 6 6 4 4 4 3 3 4 5 5 4 4 5 6 6 6 7 6 5 5 4 4 4 6 6 6 6 4 4 4 7 2 3 5 7 5
2 2 1 3 4 4 4 4 4 4 4 4 5 7 6 6 6 5 5 6 7 7 6 6 6 6 4 5 4 4 3 5 6 5 3 2 3 3 4 5 6 8 8
3 5 5 3 3 3 4 4 4 5 5 6 7 6 7 6 6 5 7 7 6 7 6 5 6 4 4 4 5 5 5 4 5 4 4 4 4 3 2 6 8 8 8
4 5 4 3 3 3 2 3 5 6 5 6 7 9 10 9 7 7 6 6 5 5 6 6 6 7 4 3 4 5 4 4 5 5 5 4 3 3 1 2 7 7 6
4 3 3 2 2 2 3 4 5 6 5 6 7 9 9 10 10 9 6 7 6 5 6 5 5 5 6 6 5 4 5 3 3 5 4 4 3 3 3 4 5 6 7
5 4 4 3 3 5 4 5 5 6 6 8 8 7 8 6 6 7 7 6 6 6 6 6 7 7 7 7 6 5 4 4 4 5 5 4 4 4 3 3 5 6 5
3 3 3 4 4 5 5 5 6 7 7 8 7 8 7 8 7 9 8 6 7 6 8 8 8 7 8 6 6 5 6 6 5 6 5 5 5 4 3 3 4 4 5
4 5 5 5 5 5 5 5 5 6 7 7 7 6 7 8 8 7 9 9 8 8 8 9 9 8 7 7 7 6 6 6 5 4 5 6 6 5 5 2 4 5 5
4 4 4 4 5 5 6 6 6 8 8 8 8 8 7 8 8 7 9 9 9 9 9 9 9 8 8 7 7 8 7 7 6 6 6 6 6 5 4 3 3 4 4
3 3 4 5 6 7 8 8 8 9 9 9 9 9 9 8 8 8 8 8 10 10 10 10 9 9 8 8 8 8 7 7 7 7 7 7 5 7 7 6 6 5 5
4 1 3 5 6 7 8 8 8 9 9 10 10 10 10 9 9 9 8 8 9 10 10 9 9 9 8 8 8 8 8 8 8 8 8 7 7 7 5 6 6 6 6
5 1 4 5 6 7 7 8 8 9 10 9 9 10 10 10 10 10 9 9 9 9 9 9 9 8 8 8 8 8 8 9 8 8 8 8 8 8 7 6 6 6 5
6 3 4 5 5 7 7 8 8 9 10 10 9 9 9 9 9 9 9 9 8 8 8 8 8 9 8 7 8 8 8 9 9 8 8 8 9 8 5 5 6 6 6
4 2 4 5 6 7 8 8 9 9 9 9 9 9 9 10 9 9 8 8 8 8 7 8 9 9 7 9 9 9 8 9 9 9 9 9 9 9 12 13 14 10 7
2 2 3 4 5 6 7 8 9 8 9 9 9 10 10 10 9 9 8 8 8 7 7 8 8 9 9 9 11 12 9 9 10 10 9 8 7 7 7 10 15 14 15
2 3 3 4 5 6 6 7 8 8 8 9 9 9 10 10 10 9 8 8 7 7 7 7 8 8 7 9 10 11 9 10 11 11 11 10 10 9 8 8 8 8 8
3 4 5 6 6 7 8 9 9 8 8 10 10 10 10 10 10 9 9 9 8 8 8 8 8 9 9 9 9 9 7 9 11 10 11 10 10 11 9 8 9 10 9
1 2 4 5 5 7 8 8 8 8 9 10 10 11 10 10 10 9 10 8 8 8 7 9 9 10 9 10 10 8 6 8 7 9 9 11 12 12 9 9 9 10 9
0 2 2 2 3 4 6 7 8 8 9 10 10 9 9 9 9 9 8 8 8 8 8 9 8 8 8 7 9 7 7 7 7 7 6 6 9 13 14 14 10 11 8
2 3 4 4 4 4 4 6 7 7 8 9 9 9 9 8 7 9 8 9 9 8 8 8 6 6 7 6 6 7 10 11 8 8 6 6 8 8 9 9 15 16 14
1 1 3 5 5 4 5 8 8 8 8 9 9 8 9 8 8 8 8 7 7 7 7 6 6 6 5 5 7 7 9 10 7 7 8 12 12 12 10 15 17 15 6
2 3 5 5 6 6 7 8 9 8 9 10 10 8 9 9 9 7 6 6 6 6 6 6 6 6 5 5 3 4 5 6 5 7 5 6 8 12 12 9 6 4 6
2 3 4 6 7 7 8 8 8 8 9 9 8 8 7 9 8 7 7 7 8 6 6 6 6 6 6 5 5 7 6 6 7 9 5 5 4 4 4 4 4 4 4
4 5 6 7 8 9 10 9 8 7 8 9 7 6 7 7 6 7 7 8 12 15 14 16 13 9 14 16 15 15 14 15 14 5 6 6 5 6 6 5 4 4 6
Wind_Direction
200 194 214 212 213 212 211 212 211 212 233 260 297 298 310 313 298 322 315 313 315 316 315 314 318 323 313 320 315 324 324 322 338 313 331 266 34 242 335 348 348 342 343
214 215 208 202 207 221 212 211 213 219 237 275 293 298 318 308 310 295 294 300 300 310 309 314 316 318 320 320 336 340 333 325 349 340 301 341 186 22 227 339 334 351 330
278 278 240 221 196 210 207 207 208 225 238 256 268 265 262 247 249 279 299 292 291 292 295 313 307 308 315 319 342 337 329 323 325 9 348 335 2 342 74 25 346 357 333
107 61 163 180 193 186 193 195 211 232 252 249 256 266 279 288 292 296 293 287 278 275 281 289 296 301 304 314 328 323 315 322 322 332 9 344 353 335 319 352 339 358 325
73 74 79 97 114 147 188 213 230 248 251 252 252 271 273 278 281 285 288 281 272 259 261 291 290 299 298 306 300 308 307 315 308 320 321 325 313 259 254 313 333 334 327
85 87 95 108 118 152 209 234 250 259 256 252 260 262 271 279 283 284 288 286 281 278 258 247 267 282 289 301 301 309 306 316 326 308 303 295 294 316 329 296 324 322 332
96 81 79 53 28 324 295 274 261 266 268 267 269 270 271 275 278 280 281 287 286 272 258 243 261 263 268 274 277 279 283 284 293 318 298 314 279 290 268 279 299 312 311
95 66 43 16 9 345 315 296 282 282 288 293 292 287 279 270 274 273 275 279 280 280 282 271 271 271 258 266 276 276 270 248 267 264 291 286 272 270 263 264 307 317 311
61 37 21 15 4 7 1 340 322 311 308 308 304 292 281 271 267 274 273 273 274 277 276 273 269 272 271 261 261 261 260 251 255 268 267 279 270 260 251 271 263 283 309
54 49 47 40 32 25 12 359 347 332 324 318 309 304 300 293 284 274 269 267 268 268 268 269 266 262 263 263 258 259 259 257 262 254 258 271 276 277 270 260 274 287 279
93 73 54 38 24 5 358 346 341 333 325 321 317 313 307 303 291 275 269 269 269 266 264 261 262 263 260 258 256 258 262 260 261 261 252 243 250 272 283 279 267 277 283
113 75 37 9 358 352 345 341 337 335 333 323 316 309 305 299 292 285 282 277 272 267 261 260 261 260 259 259 256 259 264 261 262 262 259 261 248 250 255 263 256 250 258
166 83 3 346 342 340 338 339 340 337 330 322 315 310 308 306 303 298 295 289 276 268 265 259 256 259 256 255 256 258 260 259 261 261 262 265 259 250 245 246 260 262 258
188 267 325 336 339 338 338 339 340 336 330 327 320 314 314 313 308 307 304 295 286 275 268 265 261 252 257 257 254 258 263 264 265 265 265 265 263 262 265 261 261 261 266
204 267 317 329 337 342 343 347 340 335 337 326 323 319 319 316 314 311 304 297 291 281 275 271 267 264 255 251 246 243 250 260 266 267 258 253 254 269 287 281 278 281 277
208 284 319 332 348 342 344 341 344 339 330 328 324 326 326 323 322 316 312 304 294 290 281 271 266 262 257 246 227 244 262 261 256 258 260 262 239 232 240 248 245 251 269
235 287 324 341 340 341 342 342 332 329 335 331 333 336 332 326 323 319 314 309 303 300 290 283 276 270 267 256 233 223 247 257 258 259 259 256 252 240 248 244 231 238 239
286 338 342 344 348 345 345 337 335 340 335 334 336 338 333 327 323 319 317 317 316 310 303 293 289 283 271 258 253 239 254 255 253 254 255 256 258 252 239 238 251 247 238
3 356 352 347 340 344 346 339 333 340 343 344 338 335 332 326 325 322 322 319 318 312 306 303 295 285 280 270 244 240 256 255 257 256 254 250 253 254 249 240 250 259 253
63 351 340 331 334 346 338 327 332 332 343 339 332 329 325 324 323 322 320 315 310 305 303 296 290 284 283 277 266 240 262 264 262 262 260 252 247 247 255 234 239 252 250
260 337 327 324 333 334 329 323 328 334 333 325 326 323 324 320 320 313 312 309 308 303 301 301 301 302 294 291 289 257 263 267 273 270 270 267 255 241 241 241 248 248 256
341 345 325 323 324 322 319 315 317 330 325 324 317 319 323 322 313 312 313 315 312 309 307 308 314 310 314 315 295 285 274 274 277 275 274 272 271 271 248 251 258 260 262
267 292 301 309 312 321 319 311 317 319 318 315 316 319 318 314 320 316 314 315 314 310 312 318 312 314 324 318 315 269 281 283 269 272 282 306 297 276 265 259 256 259 248
300 316 310 313 315 327 316 310 317 317 317 316 319 319 317 322 313 314 308 301 302 311 305 304 303 308 308 304 320 331 321 292 268 272 277 282 280 282 271 279 263 235 231
293 307 304 304 308 314 308 310 314 320 314 315 312 315 317 312 311 308 304 303 298 300 295 291 290 294 292 280 297 293 293 291 288 306 287 286 284 276 256 249 239 247 238
308 301 300 302 307 310 308 311 313 313 311 312 313 314 312 309 307 307 306 281 258 269 268 267 264 280 272 272 270 273 271 272 275 274 267 261 250 261 268 272 277 272 265